Weather History for Forrest, WE

Change the Weather History Date:

Wednesday, December 18, 2013

  Actual Average Record
Temperature  
Mean Temperature 91 °F -  
Max Temperature 112 °F - - ()
Min Temperature 70 °F - - ()
Cooling Degree Days 26    
Growing Degree Days 41 (Base 50)    
Moisture  
Dew Point 32 °F    
Average Humidity 12    
Maximum Humidity 44    
Minimum Humidity 4    
Precipitation  
Precipitation 0.00 in - - ()
Sea Level Pressure  
Sea Level Pressure 29.78 in    
Wind  
Wind Speed 13 mph ()    
Max Wind Speed 23 mph    
Max Gust Speed 36 mph    
T = Trace of Precipitation, MM = Missing Value Source: Averaged Metar Reports

Daily Weather History Graph

Daily Weather History Graph

Search for Another Location

Airport:

Trip Planner

Search our weather history database for the weather conditions in past years. The results will help you decide how hot, cold, wet, or windy it might be!

Date:

Astronomy

Dec. 18, 2013 Rise Set
Actual Time 4:19 AM AWST 6:28 PM AWST
Civil Twilight 3:51 AM AWST 6:56 PM AWST
Nautical Twilight 3:18 AM AWST 7:30 PM AWST
Astronomical Twilight 2:41 AM AWST 8:06 PM AWST
Moon 7:00 PM AWST (12/18) 4:58 AM AWST (12/18)
Length of Visible Light 15h 04m
Length of Day
14h 08m
Waxing Gibbous, 99% of the Moon is Illuminated
Dec 18
Waxing Gibbous
Dec 25
Last Quarter
Jan 1
New
Jan 8
First Quarter
Jan 16
Full

Hourly Weather History & Observations

Time (AWST) Temp. Dew Point Humidity Pressure Visibility Wind Dir Wind Speed Gust Speed Precip Events Conditions
12:00 AM 80 °F 28 °F 7% 29.78 in - ENE 11.5 mph - -  
12:00 AM 80.6 °F 28.4 °F 15% 29.80 in - ENE 11.5 mph - N/A   Unknown
12:30 AM 78.8 °F 30.2 °F 17% 29.80 in - ENE 11.5 mph - N/A   Unknown
1:00 AM 77.0 °F 30.2 °F 18% 29.77 in - ENE 11.5 mph - N/A   Unknown
1:30 AM 77.0 °F 30.2 °F 18% 29.77 in - NE 12.7 mph - N/A   Unknown
2:00 AM 74 °F 31 °F 11% 29.77 in - NE 10.4 mph - -  
2:00 AM 73.4 °F 30.2 °F 20% 29.77 in - NE 10.4 mph - N/A   Unknown
2:30 AM 71.6 °F 30.2 °F 22% 29.77 in - NE 9.2 mph - N/A   Unknown
3:00 AM 75 °F 25 °F 7% 29.77 in - NE 10.4 mph - -  
3:00 AM 75.2 °F 24.8 °F 15% 29.77 in - NE 10.4 mph - N/A   Unknown
3:30 AM 77.0 °F 21.2 °F 12% 29.80 in - NNE 10.4 mph - N/A   Unknown
4:00 AM 73.4 °F 23.0 °F 15% 29.80 in - North 5.8 mph - N/A   Unknown
4:30 AM 71.6 °F 23.0 °F 16% 29.80 in - NNE 6.9 mph - N/A   Unknown
5:00 AM 74 °F 23 °F 7% 29.80 in - NNE 6.9 mph - -  
5:00 AM 73.4 °F 23.0 °F 15% 29.80 in - NNE 6.9 mph - N/A   Unknown
5:30 AM 80.6 °F 23.0 °F 12% 29.80 in - NNE 6.9 mph - N/A   Unknown
6:00 AM 86 °F 23 °F 4% 29.81 in - North 10.4 mph - -  
6:00 AM 86.0 °F 23.0 °F 10% 29.83 in - North 10.4 mph - N/A   Unknown
6:30 AM 89.6 °F 23.0 °F 9% 29.83 in - North 12.7 mph 24.2 mph N/A   Unknown
7:00 AM 95.0 °F 37.4 °F 13% 29.83 in - North 15.0 mph - N/A   Unknown
7:30 AM 96.8 °F 41.0 °F 15% 29.83 in - NNW 18.4 mph - N/A   Unknown
8:00 AM 98 °F 41 °F 7% 29.83 in - North 20.7 mph - -  
8:00 AM 98.6 °F 41.0 °F 14% 29.83 in - North 20.7 mph - N/A   Unknown
8:30 AM 98.6 °F 41.0 °F 14% 29.83 in - NNW 20.7 mph - N/A   Unknown
9:00 AM 102 °F 40 °F 6% 29.82 in - NW 21.9 mph - -  
9:00 AM 102.2 °F 39.2 °F 11% 29.83 in - NW 21.9 mph - N/A   Unknown
9:30 AM 104.0 °F 37.4 °F 10% 29.83 in - NW 23.0 mph - N/A   Unknown
10:00 AM 105.8 °F 37.4 °F 10% 29.83 in - NW 21.9 mph - N/A   Unknown
10:30 AM 107.6 °F 37.4 °F 9% 29.80 in - NW 18.4 mph - N/A   Unknown
10:52 AM 107.6 °F 33.8 °F 8% 29.80 in - NNW 19.6 mph 33.4 mph N/A   Unknown
11:00 AM 108 °F 34 °F 4% 29.80 in - NNW 20.7 mph - -  
11:00 AM 109.4 °F 33.8 °F 7% 29.80 in - NNW 20.7 mph 33.4 mph N/A   Unknown
11:09 AM 107.6 °F 33.8 °F 8% 29.80 in - WNW 23.0 mph - N/A   Unknown
11:21 AM 107.6 °F 30.2 °F 7% 29.80 in - NNW 15.0 mph 29.9 mph N/A   Unknown
11:26 AM 109.4 °F 32.0 °F 7% 29.80 in - NNW 17.3 mph 28.8 mph N/A   Unknown
11:27 AM 109.4 °F 32.0 °F 7% 29.80 in - WNW 23.0 mph - N/A   Unknown
11:35 AM 109.4 °F 26.6 °F 6% 29.80 in - WNW 19.6 mph 31.1 mph N/A   Unknown
12:00 PM 107 °F 30 °F 4% 29.78 in - WNW 18.4 mph - -  
12:00 PM 107.6 °F 30.2 °F 7% 29.77 in - WNW 18.4 mph - N/A   Unknown
12:30 PM 111.2 °F 28.4 °F 6% 29.77 in - NNW 18.4 mph - N/A   Unknown
1:00 PM 111.2 °F 24.8 °F 5% 29.77 in - North 17.3 mph - N/A   Unknown
1:30 PM 111.2 °F 24.8 °F 5% 29.77 in - NNW 16.1 mph - N/A   Unknown
1:54 PM 107.6 °F 26.6 °F 6% 29.74 in - NNW 17.3 mph 28.8 mph N/A   Unknown
2:00 PM 107 °F 26 °F 4% 29.74 in - North 23.0 mph - -  
2:00 PM 107.6 °F 26.6 °F 6% 29.74 in - North 23.0 mph - N/A   Unknown
2:30 PM 107.6 °F 21.2 °F 5% 29.74 in - North 10.4 mph - N/A   Unknown
3:00 PM 107 °F 27 °F 4% 29.73 in - NNW 13.8 mph - -  
3:00 PM 107.6 °F 26.6 °F 6% 29.74 in - NNW 13.8 mph 33.4 mph N/A   Unknown
3:30 PM 109.4 °F 23.0 °F 5% 29.71 in - North 11.5 mph - N/A   Unknown
3:53 PM 109.4 °F 28.4 °F 6% 29.71 in - North 17.3 mph 35.7 mph N/A   Unknown
4:00 PM 109.4 °F 26.6 °F 6% 29.71 in - NNW 19.6 mph - N/A   Unknown
4:30 PM 105.8 °F 24.8 °F 6% 29.74 in - North 15.0 mph - N/A   Unknown
5:00 PM 103 °F 30 °F 4% 29.73 in - South 15.0 mph - -  
5:00 PM 102.2 °F 30.2 °F 8% 29.74 in - South 15.0 mph - N/A   Unknown
5:30 PM 100.4 °F 33.8 °F 10% 29.74 in - SSE 17.3 mph - N/A   Unknown
6:00 PM 100 °F 34 °F 4% 29.74 in - SSE 11.5 mph - -  
6:00 PM 100.4 °F 33.8 °F 10% 29.74 in - SSE 11.5 mph - N/A   Unknown
6:30 PM 96.8 °F 32.0 °F 10% 29.77 in - SSE 9.2 mph - N/A   Unknown
7:00 PM 95.0 °F 32.0 °F 11% 29.77 in - East 13.8 mph - N/A   Unknown
7:30 PM 93.2 °F 35.6 °F 13% 29.77 in - East 15.0 mph - N/A   Unknown
8:00 PM 94 °F 35 °F 6% 29.78 in - East 16.1 mph - -  
8:00 PM 93.2 °F 35.6 °F 13% 29.77 in - East 16.1 mph - N/A   Unknown
8:30 PM 93.2 °F 35.6 °F 13% 29.80 in - East 16.1 mph - N/A   Unknown
9:00 PM 91 °F 36 °F 7% 29.78 in - ENE 12.7 mph - -  
9:00 PM 91.4 °F 35.6 °F 14% 29.80 in - ENE 12.7 mph - N/A   Unknown
9:30 PM 91.4 °F 37.4 °F 15% 29.80 in - ENE 13.8 mph - N/A   Unknown
10:00 PM 89.6 °F 37.4 °F 16% 29.80 in - NE 12.7 mph - N/A   Unknown
10:30 PM 86.0 °F 39.2 °F 19% 29.80 in - South 5.8 mph - N/A   Unknown
11:00 PM 90 °F 38 °F 8% 29.79 in - East 8.1 mph - -  
11:00 PM 89.6 °F 37.4 °F 16% 29.80 in - East 8.1 mph - N/A   Unknown
11:09 PM 80.6 °F 50.0 °F 34% 29.80 in - South 12.7 mph - N/A   Unknown
11:20 PM 78.8 °F 53.6 °F 42% 29.80 in - SSW 17.3 mph - N/A   Unknown
11:22 PM 78.8 °F 53.6 °F 42% 29.80 in - SSW 19.6 mph 31.1 mph N/A   Unknown
11:30 PM 78.8 °F 55.4 °F 44% 29.83 in - SSW 21.9 mph - N/A   Unknown